Location: Seattle
(47.6064°N, 122.3308°W)
Time: 01:31:58
(UTC-08:00)

Tiros 1 - Pass Details

Date: 04 December 2020
Orbit: 630 x 663 km, 48.4° (Epoch: 28 January)

Event Time Altitude Azimuth Distance (km) Brightness Sun altitude
Rises 19:09:09 0° 286° (WNW) 2,992 11.7 -27.8°
Reaches altitude 10° 19:11:44 10° 275° (W) 2,073 10.7 -28.3°
Maximum altitude 19:15:50 29° 216° (SW) 1,203 8.8 -29.0°
Enters shadow 19:16:21 28° 204° (SSW) 1,220 8.7 -29.0°
Drops below altitude 10° 19:19:54 10° 157° (SSE) 2,049 - -29.6°
Sets 19:22:27 0° 146° (SE) 2,950 - -30.1°
